Wind_Speed
6 7 10 7 2 3 9 6 6 4 4 4 6 6 5 6 6 5 5 6 7 7 9 9 8 9 10 10 11 9 9 8 9 11 14 15 15 15 17 18 19 20 20 21 22 21 21 21 21
6 7 8 5 2 3 5 7 5 4 2 2 2 3 5 5 5 6 6 7 8 7 7 7 6 7 8 9 10 12 14 15 15 17 18 18 18 19 20 20 20 21 22 22 23 23 23 23 23
8 6 6 4 3 5 5 6 4 2 2 4 5 6 6 7 7 7 7 7 7 6 7 6 8 8 9 9 10 11 12 14 15 17 19 20 21 22 23 25 26 25 25 24 25 25 25 26 25
8 7 5 2 3 3 3 4 2 3 4 3 4 6 7 8 8 7 6 5 6 7 9 10 11 12 12 12 12 13 13 14 15 17 18 18 19 21 23 26 27 29 29 29 29 29 28 27 28
7 7 6 3 2 2 5 6 5 5 5 6 7 8 9 7 6 5 3 5 7 8 9 11 12 14 15 16 17 18 19 19 19 18 20 20 21 21 23 24 25 27 29 31 32 32 32 32 31
10 10 8 8 8 7 7 7 7 7 8 8 8 8 7 6 5 5 5 6 7 9 10 12 14 16 17 19 21 22 22 22 24 24 24 24 25 26 26 26 27 28 30 31 32 35 35 35 36
13 12 12 11 11 12 10 9 8 9 10 9 9 8 7 7 6 6 6 6 8 10 13 15 17 19 20 21 22 23 24 24 25 25 25 26 26 27 28 29 30 31 32 33 34 35 36 37 38
14 13 14 13 12 11 11 11 10 12 12 10 8 5 4 5 5 5 6 7 10 13 15 16 17 19 21 21 22 23 24 25 25 26 26 26 26 28 28 29 30 32 33 35 36 37 37 39 40
15 15 15 14 13 13 12 13 12 12 11 9 8 7 6 5 6 6 7 9 11 14 16 17 19 20 21 21 21 22 23 24 24 25 25 25 26 26 27 29 30 32 34 35 37 38 39 40 41
15 16 12 14 14 13 13 14 12 12 10 9 8 7 7 8 7 8 9 10 12 13 15 16 17 17 18 20 21 23 23 24 24 24 25 27 28 29 31 32 34 36 37 38 39 41 42 42 43
16 17 15 13 12 12 12 12 11 11 11 9 9 9 9 9 8 9 10 10 11 12 13 13 14 17 19 20 22 23 24 26 28 29 30 30 31 32 33 35 37 38 39 40 41 42 44 45 45
16 15 16 14 13 13 12 11 11 12 12 12 11 11 11 10 9 10 10 10 10 10 10 12 15 18 20 23 24 26 29 31 32 33 32 32 32 33 35 37 40 41 42 42 43 44 45 46 47
14 13 12 13 12 12 11 12 13 13 14 14 14 13 11 11 11 11 10 10 10 9 10 14 18 21 24 25 28 30 33 35 36 36 37 37 38 39 40 41 43 44 44 46 45 46 46 47 48
10 12 12 12 11 11 12 14 17 14 15 16 15 15 13 13 12 11 11 11 9 10 12 16 21 25 28 29 31 34 37 38 39 40 40 40 42 43 45 46 47 47 48 48 49 48 47 48 50
12 12 12 12 12 14 13 18 17 17 17 17 15 16 15 14 13 13 12 11 10 11 14 18 22 27 30 32 34 37 40 42 42 42 42 42 44 46 48 50 50 50 49 49 48 46 48 48 49
12 13 14 14 15 17 16 16 13 13 16 16 17 18 17 15 15 14 14 13 12 13 16 19 23 27 32 35 37 39 41 44 44 45 45 45 47 49 51 52 52 52 51 49 48 47 47 48 49
15 12 15 15 15 19 20 13 12 15 17 19 19 19 19 17 16 15 17 16 15 16 19 21 24 29 35 37 38 40 41 44 45 45 44 46 49 51 54 55 54 53 52 50 50 49 49 47 47
15 17 18 17 15 18 21 20 21 22 23 23 22 20 20 17 16 19 19 19 18 20 21 23 27 31 36 39 40 40 41 44 46 45 46 48 50 52 53 53 52 52 51 50 48 47 45 42 44
17 15 16 16 18 21 21 25 17 24 28 28 24 20 19 17 20 21 22 21 21 23 24 26 29 34 38 41 42 42 44 47 49 49 50 52 53 54 54 53 53 51 49 47 46 45 44 40 39
20 18 18 18 18 21 24 28 25 28 31 30 26 21 19 20 21 21 22 23 23 24 25 28 32 37 40 44 45 47 51 54 54 53 52 52 53 52 51 50 49 48 46 43 44 44 43 39 37
18 19 17 17 18 21 27 36 19 19 20 21 22 19 21 20 21 22 23 23 24 24 26 30 35 39 44 45 46 49 52 54 54 53 53 53 51 48 46 44 45 45 44 43 43 43 42 39 34
19 18 18 18 15 10 10 11 18 22 22 19 16 16 16 18 19 21 21 22 23 24 28 31 37 41 45 45 48 52 55 57 56 56 56 53 49 45 43 43 43 43 43 43 43 41 40 39 36
19 17 15 15 16 19 21 11 15 13 12 13 14 15 16 17 19 20 21 22 22 24 28 34 38 43 44 45 48 53 56 56 55 55 54 51 47 45 42 42 41 41 41 41 41 39 37 36 36
18 15 13 16 13 6 11 13 11 11 11 14 16 16 15 17 18 19 20 20 21 25 30 35 39 42 44 45 50 54 55 55 56 55 53 50 47 45 44 44 44 42 40 40 40 37 35 34 34
20 12 3 3 1 5 5 9 21 17 15 15 15 16 15 16 17 17 18 19 22 28 32 35 38 41 43 47 52 54 54 54 55 54 52 50 48 48 46 45 44 42 39 38 39 37 34 32 33
19 20 8 6 3 4 6 11 10 10 14 19 20 17 16 15 15 16 17 20 26 32 33 36 39 41 45 49 53 53 53 54 54 52 50 50 50 49 47 46 44 43 40 38 38 37 33 32 31
16 20 20 7 6 3 9 15 23 22 18 17 17 16 15 14 14 15 19 26 30 30 33 36 39 42 46 51 53 52 54 54 52 51 51 51 49 48 47 47 45 43 41 38 37 36 33 32 30
23 13 8 10 3 5 7 11 20 12 11 14 16 15 15 15 15 19 27 28 29 30 33 36 40 43 48 51 52 54 54 53 52 51 50 49 48 49 48 47 46 43 41 37 36 35 33 32 29
27 27 16 10 7 5 1 9 12 14 12 12 14 14 14 15 22 26 28 28 28 31 33 37 41 45 49 50 51 53 52 52 52 50 48 49 50 50 49 47 46 44 41 38 35 35 33 32 30
28 29 29 15 8 10 3 18 27 29 21 15 14 14 18 24 26 28 28 27 28 30 34 38 43 47 49 50 51 52 52 52 51 49 50 51 52 50 49 47 45 44 41 39 37 34 33 32 30
Wind_Direction
166 176 171 159 176 145 127 134 143 123 122 125 126 176 201 224 228 249 264 263 280 290 290 290 287 290 291 291 284 283 288 285 287 286 281 277 282 289 288 285 282 281 281 282 284 283 282 282 283
173 180 187 185 224 147 123 145 128 116 147 181 170 216 228 247 247 252 261 283 289 289 284 288 300 303 302 297 295 293 289 285 287 283 285 285 285 281 280 284 284 284 285 283 282 282 283 282 281
198 200 196 200 191 160 168 165 165 195 227 221 213 221 245 256 263 269 272 275 279 290 299 322 329 326 321 314 309 305 293 289 290 288 287 286 283 280 278 277 279 280 280 279 280 280 280 281 280
214 209 208 208 131 123 157 189 231 270 259 246 258 260 249 259 254 254 256 272 303 319 343 342 333 332 324 323 318 309 303 300 298 296 294 294 290 287 283 282 280 279 279 281 279 278 277 276 275
236 245 246 235 202 202 221 227 249 257 269 270 263 260 263 266 269 281 294 312 323 337 338 335 333 329 329 325 320 316 313 311 307 304 300 296 292 289 288 286 285 285 281 277 276 276 275 274 274
240 242 246 241 236 234 223 240 243 246 250 256 258 259 268 266 272 285 303 314 332 336 333 329 325 322 318 315 313 311 309 308 305 303 301 300 298 297 295 292 288 287 285 284 280 276 274 273 272
232 238 242 241 235 232 236 251 242 241 247 251 256 253 256 242 262 285 300 321 331 324 319 317 315 316 316 315 312 310 310 308 304 300 301 302 301 299 298 295 295 293 290 286 283 280 277 274 269
229 236 244 243 242 233 239 243 244 247 250 252 254 260 258 272 281 293 311 318 317 316 312 313 315 312 315 314 311 310 307 303 302 302 301 301 299 294 293 294 293 292 293 291 289 284 278 275 271
236 240 244 240 245 239 245 240 247 247 249 256 265 274 273 280 297 306 311 312 308 305 311 318 319 320 316 313 311 307 305 306 306 305 303 301 300 299 299 298 297 295 291 288 286 285 281 276 271
230 236 240 243 243 233 238 240 246 247 254 251 259 265 274 287 295 304 301 299 299 308 316 319 318 315 315 318 319 320 319 317 315 312 310 308 310 310 309 307 304 300 296 292 288 285 282 279 274
238 243 247 253 244 246 245 248 250 249 258 269 262 269 276 283 284 289 283 286 298 310 316 314 316 321 326 328 327 326 326 325 323 320 317 315 314 312 310 307 303 300 297 293 288 285 283 281 278
242 245 244 244 247 247 245 245 250 258 261 263 267 270 280 282 274 275 271 276 284 297 304 319 332 336 336 335 335 334 333 330 327 322 318 314 312 310 309 307 305 302 299 296 292 288 284 280 277
245 248 245 240 238 239 247 255 255 261 267 268 269 261 271 267 260 257 255 257 274 294 311 331 340 342 339 338 338 337 334 331 328 325 323 319 317 314 311 310 307 305 302 299 295 291 285 280 276
249 244 242 245 246 248 255 260 259 262 259 257 258 253 264 262 253 251 247 256 273 293 314 329 336 339 340 338 337 335 334 333 330 328 323 320 318 317 315 314 310 307 304 301 297 292 285 278 275
249 241 242 242 243 251 257 262 264 260 260 261 261 257 258 256 246 243 242 255 273 292 311 323 331 335 336 335 333 334 334 333 330 326 323 322 320 318 316 313 310 306 302 299 295 290 284 279 275
237 239 238 245 249 251 256 261 266 262 255 258 267 263 257 257 245 242 240 252 269 291 305 315 321 329 333 334 332 333 333 331 330 328 325 324 321 317 315 312 309 306 303 300 296 290 283 278 274
239 243 244 246 246 247 256 257 260 266 263 267 271 265 254 255 246 242 244 255 270 284 296 307 316 323 330 331 330 329 329 330 328 326 324 321 319 316 313 312 309 306 303 299 294 290 287 283 277
239 247 252 249 258 251 256 269 277 281 274 271 268 260 249 252 247 244 248 256 269 281 292 304 312 318 324 327 326 326 327 327 326 326 325 321 318 316 313 311 308 304 301 301 298 294 291 287 280
250 260 258 257 260 264 267 276 269 277 277 275 277 271 250 253 246 247 251 259 269 280 291 300 308 315 322 323 321 321 324 327 331 329 327 323 321 319 317 313 311 309 308 306 302 298 295 289 286
251 255 257 262 263 267 275 277 279 269 274 275 271 258 248 250 248 249 253 260 268 278 288 297 307 314 319 320 321 325 329 331 331 328 325 323 321 319 317 314 312 311 310 307 302 300 297 294 287
246 251 256 261 272 276 288 291 288 271 261 265 260 248 243 247 246 248 255 261 268 277 287 297 307 313 317 318 323 327 328 328 326 325 325 324 323 320 317 314 312 311 310 307 302 300 297 294 289
249 254 256 260 267 272 274 289 283 282 269 262 252 243 247 249 247 253 260 264 269 277 289 299 307 312 315 321 325 326 326 326 327 326 325 325 323 321 318 316 314 313 311 307 304 300 296 293 290
246 255 256 260 268 279 272 249 288 274 243 263 250 242 245 251 249 257 260 263 269 281 293 301 308 312 318 322 323 324 324 324 324 324 325 324 323 320 319 316 315 313 311 308 304 301 296 293 290
244 249 259 269 267 265 246 221 274 250 262 257 245 238 246 253 253 255 258 264 273 285 295 303 308 314 320 321 323 323 322 323 324 324 324 323 322 320 319 316 316 314 312 308 304 301 298 295 290
236 234 266 300 198 230 211 223 258 265 252 252 244 238 250 256 254 253 258 266 280 292 297 303 310 316 318 320 321 321 322 323 324 323 322 323 321 320 319 317 315 314 311 306 303 301 298 294 290
233 220 211 219 207 264 225 240 269 268 239 240 249 250 257 256 251 255 263 279 290 295 299 306 314 317 318 318 318 320 322 323 323 321 321 321 321 320 319 318 316 313 309 306 302 300 298 293 289
224 218 231 246 276 306 249 260 265 255 247 249 251 251 259 256 259 266 277 290 295 298 305 312 315 316 315 316 318 321 321 321 319 320 321 320 319 320 319 317 316 313 309 304 300 299 297 292 289
220 218 202 204 187 247 271 272 252 272 248 246 246 251 256 265 272 279 292 297 299 305 310 313 313 312 313 317 320 321 321 319 319 320 319 319 319 318 316 314 312 310 307 303 298 296 294 290 287
219 221 217 212 215 182 250 259 270 274 265 255 243 248 269 276 288 293 298 301 305 308 310 311 310 311 315 318 319 318 317 317 318 319 319 318 317 315 313 312 310 309 306 303 298 293 290 287 285
229 235 235 220 217 215 225 264 270 275 274 259 256 259 283 295 294 296 299 302 305 307 310 309 310 314 316 318 318 317 317 318 319 319 319 317 315 315 313 312 311 309 307 304 300 292 287 283 280
Height
3159 3159 3159 3160 3166 3163 3162 3165 3164 3165 3165 3165 3166 3167 3169 3169 3169 3172 3168 3168 3167 3166 3165 3164 3164 3163 3162 3161 3159 3158 3157 3155 3155 3154 3153 3153 3152 3151 3151 3150 3149 3149 3148 3148 3147 3146 3145 3144 3144
3158 3159 3160 3161 3163 3161 3162 3163 3164 3165 3165 3164 3165 3166 3167 3167 3166 3166 3165 3164 3164 3164 3164 3163 3162 3161 3161 3160 3158 3157 3156 3153 3153 3151 3150 3149 3149 3148 3148 3147 3145 3145 3145 3144 3143 3143 3142 3141 3140
3159 3159 3162 3162 3160 3160 3162 3163 3164 3164 3164 3164 3165 3165 3166 3165 3164 3163 3163 3163 3164 3163 3162 3162 3160 3159 3159 3157 3155 3154 3152 3150 3149 3148 3147 3146 3145 3144 3143 3142 3141 3141 3140 3139 3139 3139 3138 3137 3136
3159 3160 3161 3159 3159 3159 3160 3161 3162 3162 3162 3163 3163 3164 3164 3163 3163 3163 3162 3162 3161 3160 3159 3158 3157 3156 3155 3153 3151 3151 3149 3148 3146 3145 3144 3142 3141 3140 3139 3138 3137 3136 3136 3135 3134 3134 3133 3132 3132
3157 3157 3157 3157 3158 3159 3159 3160 3161 3161 3161 3162 3162 3161 3162 3162 3161 3160 3160 3160 3159 3158 3157 3156 3155 3153 3151 3150 3149 3148 3146 3145 3143 3142 3140 3139 3137 3136 3135 3134 3132 3131 3130 3129 3128 3128 3127 3127 3127
3157 3157 3157 3157 3158 3159 3159 3160 3159 3160 3160 3160 3160 3159 3160 3159 3159 3158 3158 3158 3156 3155 3154 3153 3151 3150 3149 3148 3147 3146 3144 3142 3141 3139 3137 3135 3134 3132 3131 3129 3128 3126 3124 3123 3122 3121 3121 3121 3121
3155 3155 3155 3156 3157 3157 3158 3157 3157 3157 3158 3159 3159 3159 3160 3158 3158 3157 3156 3155 3154 3153 3152 3151 3150 3149 3148 3146 3144 3142 3140 3139 3137 3135 3134 3132 3130 3128 3127 3125 3123 3121 3119 3118 3117 3115 3114 3113 3113
3154 3154 3154 3155 3155 3156 3155 3155 3155 3156 3156 3157 3156 3156 3157 3156 3156 3155 3153 3152 3151 3150 3150 3149 3148 3148 3146 3144 3142 3139 3137 3136 3133 3131 3129 3127 3125 3123 3121 3118 3116 3114 3112 3111 3109 3107 3106 3105 3105
3152 3153 3152 3153 3153 3154 3154 3154 3154 3154 3154 3154 3154 3154 3154 3153 3152 3151 3150 3149 3149 3149 3148 3147 3146 3144 3143 3141 3139 3137 3134 3131 3129 3127 3124 3122 3120 3117 3114 3112 3110 3107 3105 3103 3100 3098 3096 3095 3095
3150 3150 3151 3151 3151 3152 3152 3152 3152 3152 3152 3152 3151 3151 3151 3150 3150 3149 3148 3147 3147 3147 3146 3145 3143 3142 3140 3137 3135 3132 3130 3127 3124 3122 3119 3117 3114 3111 3108 3105 3102 3100 3097 3094 3091 3089 3087 3085 3085
3148 3148 3149 3149 3149 3149 3149 3149 3149 3149 3148 3149 3149 3149 3148 3148 3147 3147 3146 3145 3145 3144 3143 3142 3141 3139 3136 3133 3130 3127 3125 3122 3119 3116 3114 3111 3108 3104 3100 3097 3094 3091 3088 3085 3082 3080 3077 3075 3073
3147 3146 3147 3147 3147 3146 3146 3146 3146 3146 3146 3146 3146 3146 3146 3146 3145 3144 3143 3143 3143 3142 3141 3139 3137 3134 3131 3128 3126 3123 3120 3117 3113 3110 3107 3103 3100 3097 3093 3089 3086 3082 3079 3075 3072 3069 3067 3065 3062
3144 3144 3144 3144 3144 3143 3144 3143 3143 3143 3143 3143 3143 3144 3144 3143 3142 3142 3141 3140 3140 3139 3137 3135 3132 3130 3127 3124 3121 3118 3114 3110 3106 3102 3098 3095 3092 3089 3085 3081 3076 3071 3068 3064 3061 3058 3055 3053 3051
3141 3141 3141 3142 3142 3141 3141 3140 3139 3140 3140 3140 3140 3140 3140 3139 3138 3138 3137 3137 3136 3134 3132 3130 3128 3126 3123 3120 3116 3112 3108 3104 3099 3095 3091 3086 3081 3077 3073 3069 3065 3060 3056 3052 3048 3045 3042 3040 3038
3139 3140 3139 3139 3139 3139 3138 3137 3136 3136 3136 3135 3136 3136 3136 3135 3134 3134 3133 3132 3131 3130 3128 3126 3124 3121 3118 3114 3110 3106 3102 3098 3093 3089 3083 3077 3072 3067 3062 3058 3054 3049 3046 3041 3037 3034 3030 3028 3025
3137 3137 3136 3136 3136 3136 3137 3133 3133 3132 3132 3132 3131 3131 3130 3130 3130 3129 3129 3128 3127 3125 3124 3122 3119 3116 3112 3108 3105 3101 3096 3092 3086 3081 3075 3068 3063 3057 3052 3046 3042 3037 3033 3030 3026 3022 3019 3015 3014
3134 3133 3133 3134 3133 3133 3132 3129 3129 3129 3128 3127 3127 3126 3125 3125 3125 3124 3123 3123 3122 3121 3119 3117 3114 3110 3107 3104 3100 3096 3092 3086 3081 3075 3068 3062 3056 3050 3043 3037 3032 3027 3022 3018 3013 3010 3005 3003 3001
3131 3131 3131 3130 3131 3129 3127 3124 3124 3122 3121 3121 3120 3120 3120 3120 3120 3119 3119 3118 3118 3116 3114 3111 3108 3105 3102 3098 3095 3091 3086 3081 3075 3068 3061 3055 3049 3042 3036 3029 3022 3015 3010 3005 3001 2996 2995 2992 2989
3128 3128 3127 3126 3126 3124 3123 3119 3120 3117 3113 3111 3113 3113 3114 3115 3115 3114 3114 3113 3113 3111 3109 3105 3102 3100 3096 3092 3089 3085 3080 3073 3066 3059 3052 3045 3038 3030 3022 3015 3009 3002 2997 2992 2987 2984 2981 2981 2978
3124 3124 3123 3123 3121 3120 3117 3112 3113 3111 3106 3105 3106 3106 3107 3109 3109 3110 3109 3108 3108 3106 3103 3100 3097 3094 3090 3085 3080 3074 3066 3060 3055 3050 3045 3038 3031 3024 3014 3006 3000 2995 2990 2986 2980 2975 2972 2971 2969
3120 3119 3119 3120 3117 3115 3112 3102 3103 3101 3099 3099 3099 3100 3101 3102 3103 3103 3103 3103 3102 3101 3098 3096 3092 3088 3083 3078 3072 3066 3060 3056 3049 3043 3037 3030 3022 3014 3007 3000 2994 2988 2982 2978 2972 2967 2964 2961 2962
3117 3116 3115 3115 3115 3113 3112 3102 3096 3096 3094 3093 3093 3094 3096 3097 3098 3098 3098 3098 3097 3096 3094 3091 3086 3082 3076 3071 3064 3058 3051 3044 3039 3032 3026 3019 3012 3006 2999 2992 2986 2980 2974 2969 2964 2960 2956 2953 2951
3112 3111 3112 3111 3111 3109 3106 3107 3087 3090 3089 3089 3089 3090 3091 3092 3093 3093 3093 3093 3092 3091 3089 3085 3080 3075 3070 3064 3058 3052 3046 3039 3032 3025 3018 3011 3005 2998 2992 2986 2980 2973 2967 2961 2956 2952 2948 2945 2943
3109 3109 3108 3107 3107 3105 3098 3100 3084 3085 3085 3084 3085 3086 3087 3087 3088 3088 3088 3088 3088 3086 3083 3079 3074 3069 3063 3058 3053 3047 3038 3030 3023 3016 3009 3003 2997 2990 2984 2977 2970 2965 2959 2954 2949 2944 2941 2938 2935
3104 3107 3107 3107 3106 3098 3094 3095 3080 3081 3080 3081 3081 3082 3082 3082 3083 3083 3084 3083 3082 3079 3076 3072 3068 3062 3057 3052 3046 3039 3030 3022 3016 3008 3001 2994 2988 2981 2975 2968 2962 2956 2952 2947 2941 2936 2933 2930 2928
3098 3101 3100 3103 3102 3094 3093 3083 3073 3074 3074 3076 3077 3077 3078 3078 3079 3079 3079 3078 3075 3072 3069 3065 3060 3055 3049 3044 3037 3030 3022 3015 3007 3000 2992 2985 2979 2972 2966 2960 2953 2948 2944 2939 2933 2928 2925 2922 2920
3092 3094 3096 3095 3093 3094 3083 3075 3072 3070 3071 3072 3073 3073 3074 3074 3074 3074 3074 3071 3069 3066 3062 3057 3053 3047 3042 3035 3028 3021 3013 3005 2998 2990 2983 2975 2968 2963 2957 2950 2944 2939 2935 2930 2925 2920 2917 2914 2913
3086 3088 3091 3092 3094 3091 3077 3073 3065 3066 3067 3068 3069 3069 3069 3069 3069 3068 3066 3064 3061 3058 3054 3050 3045 3041 3034 3027 3019 3011 3003 2996 2988 2981 2974 2967 2961 2954 2947 2942 2935 2930 2925 2921 2916 2912 2909 2906 2905
3078 3079 3082 3084 3083 3081 3083 3067 3063 3063 3063 3063 3064 3064 3065 3065 3063 3061 3059 3056 3054 3051 3047 3043 3038 3032 3026 3018 3010 3003 2995 2988 2980 2971 2964 2958 2951 2944 2937 2930 2925 2920 2915 2910 2906 2903 2899 2897 2897
3070 3071 3073 3076 3075 3074 3072 3060 3058 3058 3058 3060 3060 3060 3060 3059 3057 3055 3052 3050 3046 3043 3040 3036 3030 3024 3017 3009 3002 2994 2986 2979 2971 2964 2956 2948 2941 2934 2926 2919 2913 2908 2904 2899 2895 2892 2890 2888 2888